Weather History for KPVU - June, 2014

Change the Weather History Date:

Tuesday, June 17, 2014

  Actual Average Record
Temperature  
Mean Temperature 52 °F -  
Max Temperature 62 °F 79 °F 95 °F (2012)
Min Temperature 42 °F 51 °F 37 °F (1998)
Degree Days  
Heating Degree Days 13    
Growing Degree Days 2 (Base 50)    
Moisture  
Dew Point 42 °F    
Average Humidity 73    
Maximum Humidity 87    
Minimum Humidity 42    
Precipitation  
Precipitation 0.10 in - - ()
Sea Level Pressure  
Sea Level Pressure 29.92 in    
Wind  
Wind Speed 13 mph (NW)    
Max Wind Speed 23 mph    
Max Gust Speed 30 mph    
Visibility 11 miles    
Events Rain    
Averages and records for this station are not official NWS values.
T = Trace of Precipitation, MM = Missing Value Source: NWS Daily Summary

Daily Weather History Graph

Daily Weather History Graph

Search for Another Location

Airport or City:

Trip Planner

Search our weather history database for the weather conditions in past years. The results will help you decide how hot, cold, wet, or windy it might be!

Date:

Astronomy

Jun. 17, 2014 Rise Set
Actual Time 5:56 AM MDT 8:58 PM MDT
Civil Twilight 5:23 AM MDT 9:31 PM MDT
Nautical Twilight 4:41 AM MDT 10:13 PM MDT
Astronomical Twilight 3:52 AM MDT 11:03 PM MDT
Moon No Moon Rise 11:15 AM MDT (6/17)
Length of Visible Light 16h 08m
Length of Day
15h 02m
Waning Gibbous, 73% of the Moon is Illuminated
Jun 17
Waning Gibbous
Jun 19
Last Quarter
Jun 27
New
Jul 5
First Quarter
Jul 12
Full

Hourly Weather History & Observations

Time (MDT) Temp. Windchill Dew Point Humidity Pressure Visibility Wind Dir Wind Speed Gust Speed Precip Events Conditions
12:15 AM 62.6 °F - 39.2 °F 42% 29.74 in 10.0 mi WNW 5.8 mph - N/A   Overcast
12:35 AM 60.8 °F - 44.6 °F 55% 29.74 in 6.0 mi WNW 15.0 mph - N/A   Partly Cloudy
12:55 AM 60.8 °F - 46.4 °F 59% 29.75 in 10.0 mi NW 16.1 mph - N/A   Clear
1:15 AM 59.0 °F - 46.4 °F 63% 29.76 in 10.0 mi NW 21.9 mph 25.3 mph N/A   Clear
1:35 AM 59.0 °F - 46.4 °F 63% 29.76 in 10.0 mi NW 21.9 mph 28.8 mph N/A   Clear
1:55 AM 57.2 °F - 46.4 °F 67% 29.76 in 10.0 mi NW 20.7 mph 26.5 mph N/A   Clear
2:15 AM 55.4 °F - 48.2 °F 77% 29.78 in 10.0 mi NW 23.0 mph 29.9 mph N/A   Clear
2:35 AM 53.6 °F - 46.4 °F 77% 29.79 in 10.0 mi NW 20.7 mph 29.9 mph N/A   Scattered Clouds
2:55 AM 53.6 °F - 46.4 °F 77% 29.80 in 10.0 mi NW 20.7 mph 25.3 mph N/A   Scattered Clouds
3:15 AM 53.6 °F - 44.6 °F 72% 29.81 in 10.0 mi NNW 16.1 mph 20.7 mph N/A   Clear
3:35 AM 51.8 °F - 44.6 °F 76% 29.82 in 10.0 mi NW 21.9 mph - N/A   Clear
3:55 AM 51.8 °F - 44.6 °F 76% 29.84 in 10.0 mi NW 13.8 mph - N/A   Mostly Cloudy
4:15 AM 51.8 °F - 44.6 °F 76% 29.83 in 10.0 mi NW 15.0 mph - N/A   Overcast
4:35 AM 51.8 °F - 44.6 °F 76% 29.84 in 10.0 mi NW 16.1 mph 19.6 mph N/A   Overcast
4:55 AM 51.8 °F - 44.6 °F 76% 29.83 in 10.0 mi NNW 12.7 mph - N/A   Overcast
5:15 AM 51.8 °F - 44.6 °F 76% 29.84 in 10.0 mi NW 8.1 mph - N/A   Scattered Clouds
5:35 AM 51.8 °F - 44.6 °F 76% 29.85 in 10.0 mi NW 10.4 mph - N/A   Partly Cloudy
5:55 AM 51.8 °F - 44.6 °F 76% 29.85 in 10.0 mi NW 15.0 mph - N/A   Mostly Cloudy
6:15 AM 51.8 °F - 44.6 °F 76% 29.85 in 10.0 mi NNW 13.8 mph - N/A   Overcast
6:49 AM 51.8 °F - 44.6 °F 76% 29.85 in 15.0 mi NW 11.5 mph - N/A   Overcast
7:49 AM 51.8 °F - 44.6 °F 76% 29.86 in 15.0 mi NW 5.8 mph - N/A   Overcast
8:52 AM 53.6 °F - 44.6 °F 72% 29.87 in 15.0 mi NW 5.8 mph - N/A   Overcast
9:55 AM 55.4 °F - 44.6 °F 67% 29.87 in 15.0 mi NW 5.8 mph - N/A   Overcast
11:53 AM 55.4 °F - 41.0 °F 58% 29.88 in 15.0 mi NW 18.4 mph 23.0 mph N/A   Overcast
12:59 PM 55.4 °F - 41.0 °F 58% 29.88 in 15.0 mi NW 17.3 mph 27.6 mph N/A   Overcast
1:48 PM 53.6 °F - 39.2 °F 58% 29.89 in 15.0 mi NW 11.5 mph 23.0 mph N/A   Overcast
2:47 PM 51.8 °F - 35.6 °F 54% 29.92 in 15.0 mi NW 11.5 mph 23.0 mph N/A   Overcast
3:47 PM 48.2 °F - 37.4 °F 66% 29.96 in 7.0 mi NW 11.5 mph 17.3 mph N/A   Overcast
4:49 PM 44.6 °F 40.7 °F 39.2 °F 81% 30.05 in 10.0 mi NNW 6.9 mph - N/A Rain Light Rain
5:47 PM 42.8 °F 39.3 °F 37.4 °F 81% 30.07 in 5.0 mi NE 5.8 mph - N/A Rain Light Rain
6:52 PM 42.8 °F 35.4 °F 39.2 °F 87% 30.05 in 10.0 mi SE 15.0 mph - N/A Rain Light Rain
7:56 PM 44.6 °F 43.1 °F 39.2 °F 81% 30.10 in 15.0 mi South 3.5 mph - N/A   Mostly Cloudy
8:51 PM 46.4 °F 45.2 °F 39.2 °F 76% 30.10 in 15.0 mi North 3.5 mph - N/A   Scattered Clouds
9:15 PM 44.6 °F 40.2 °F 39.2 °F 81% 30.10 in 10.0 mi ESE 8.1 mph - N/A   Clear
9:35 PM 44.6 °F 42.2 °F 39.2 °F 81% 30.10 in 10.0 mi ESE 4.6 mph - N/A   Scattered Clouds
9:55 PM 44.6 °F 42.2 °F 39.2 °F 81% 30.10 in 10.0 mi SE 4.6 mph - N/A   Scattered Clouds
10:15 PM 44.6 °F 42.2 °F 39.2 °F 81% 30.12 in 10.0 mi SE 4.6 mph - N/A   Clear
10:35 PM 44.6 °F 42.2 °F 39.2 °F 81% 30.11 in 10.0 mi SSE 4.6 mph - N/A   Clear
10:55 PM 42.8 °F - 39.2 °F 87% 30.11 in 10.0 mi Calm Calm - N/A   Clear
11:15 PM 42.8 °F 40.1 °F 37.4 °F 81% 30.09 in 10.0 mi South 4.6 mph - N/A   Clear
11:35 PM 42.8 °F - 39.2 °F 87% 30.06 in 10.0 mi Calm Calm - N/A   Clear
11:55 PM 42.8 °F - 39.2 °F 87% 30.07 in 10.0 mi Calm Calm - N/A   Clear